Location: Sperry Observatory
(40.6664°N, 74.3236°W)
Time: 02:00:06
(UTC-04:00)

Amateur Radio Satellites - All Passes

Search period start: 28 May 2015 01:30
Search period end: 29 May 2015 01:30
Location: Sperry Observatory, 40.6664°N, 74.3236°W

Satellite Date Start Highest point End Downlink Frequencies (MHz)
Time Altitude Azimuth
BEESAT 2 28 May 01:32:43 01:34:12 12° 38° (NE) 01:35:49 435.950
ISS 28 May 01:33:11 01:35:20 16° 345° (NNW) 01:37:29 145.825
BEESAT 28 May 01:33:55 01:38:34 58° 73° (ENE) 01:43:16 436.000
SWISSCUBE 28 May 01:42:29 01:47:13 78° 75° (ENE) 01:52:00 437.505
BUGSAT 1 28 May 01:43:56 01:46:23 15° 295° (WNW) 01:48:38 437.445
TISAT 1 28 May 01:46:09 01:48:51 16° 269° (W) 01:51:25 437.305
GONETS M04 28 May 01:54:46 02:02:45 39° 273° (W) 02:10:28
PHONESAT 2.4 28 May 01:58:25 02:00:22 14° 148° (SSE) 02:02:24 2401.200-2431.200
DANDE 28 May 01:58:28 02:04:00 22° 279° (W) 02:08:29 436.750
Oscar 19 28 May 02:05:52 02:10:49 45° 98° (E) 02:15:44 437.125/150
BEESAT 3 28 May 02:18:53 02:22:35 33° 50° (NE) 02:26:16 437.485
O/OREOS (USA 219) 28 May 02:20:06 02:24:14 37° 254° (WSW) 02:28:19 437.305
ITAMSAT 1 28 May 02:23:03 02:26:39 19° 91° (E) 02:30:26 435.822/435.867
STARS 28 May 02:24:44 02:28:05 22° 67° (ENE) 02:31:33 437.465
Cosmos 2499 28 May 02:34:08 02:41:13 81° 81° (E) 02:48:26 435.465 / 435.565
VERMONT LUNAR 28 May 02:53:30 02:56:43 69° 168° (SSE) 02:59:55 437.305
KKS-1 28 May 02:58:11 03:02:39 79° 76° (ENE) 03:07:10 437.445
AIST 2 28 May 03:05:43 03:09:16 26° 47° (NE) 03:12:49 435.215
Gurwin Techsat 1B 28 May 03:05:48 03:10:55 47° 98° (E) 03:16:02 435.225
ITUPSAT 1 28 May 03:06:31 03:09:44 17° 269° (W) 03:12:47 437.325
BEESAT 2 28 May 03:08:51 03:12:59 88° 66° (ENE) 03:17:01 435.950
ISS 28 May 03:11:16 03:12:46 12° 5° (N) 03:14:17 145.825
BEESAT 28 May 03:14:13 03:16:52 14° 270° (W) 03:19:18 436.000
PCSat 28 May 03:16:04 03:18:21 12° 323° (NW) 03:20:25 145.827
AO-7 28 May 03:17:34 03:20:28 13° 85° (E) 03:24:06 29.400- 29.500
SO-50 28 May 03:24:48 03:29:30 89° 301° (WNW) 03:34:22 436.795
SWISSCUBE 28 May 03:24:51 03:25:45 10° 273° (W) 03:26:20 437.505
PHONESAT 2.4 28 May 03:34:40 03:38:03 51° 163° (SSE) 03:41:27 2401.200-2431.200
HORYU 2 28 May 03:43:55 03:46:41 17° 91° (E) 03:49:37 437.375
Oscar 19 28 May 03:45:56 03:49:54 22° 295° (WNW) 03:53:44 437.125/150
BEESAT 3 28 May 03:57:11 04:00:25 22° 247° (WSW) 04:03:31 437.485
STARS 28 May 04:00:16 04:04:21 35° 263° (W) 04:08:26 437.465
ITAMSAT 1 28 May 04:01:27 04:06:30 51° 289° (WNW) 04:11:33 435.822/435.867
JAS-2 28 May 04:19:01 04:23:50 39° 98° (E) 04:28:52 435.910
Cosmos 2499 28 May 04:29:33 04:33:34 15° 278° (W) 04:37:11 435.465 / 435.565
VERMONT LUNAR 28 May 04:30:40 04:33:53 86° 189° (S) 04:37:06 437.305
MOZHAYETS 4 28 May 04:35:04 04:39:36 66° 75° (ENE) 04:44:08
AIST 2 28 May 04:44:05 04:47:53 32° 245° (WSW) 04:51:34 435.215
Gurwin Techsat 1B 28 May 04:46:29 04:50:37 23° 295° (WNW) 04:54:37 435.225
ISS 28 May 04:47:12 04:50:01 26° 24° (NNE) 04:52:52 145.825
AO-7 28 May 05:06:32 05:14:55 73° 105° (ESE) 05:23:17 29.400- 29.500
SO-50 28 May 05:07:55 05:10:49 15° 323° (NW) 05:13:38 436.795
PHONESAT 2.4 28 May 05:12:37 05:16:06 90° 202° (SSW) 05:19:35 2401.200-2431.200
HORYU 2 28 May 05:19:23 05:23:36 43° 288° (WNW) 05:27:46 437.375
Cosmos 2491 28 May 05:42:48 05:50:26 33° 68° (ENE) 05:58:13 435.465 / 435.565
AUBIESAT-1 28 May 06:00:18 06:00:39 10° 61° (ENE) 06:01:14 437.475
JAS-2 28 May 06:04:43 06:08:52 24° 294° (WNW) 06:12:59 435.910
VERMONT LUNAR 28 May 06:07:57 06:10:56 36° 201° (SSW) 06:13:54 437.305
MOZHAYETS 4 28 May 06:15:39 06:17:22 12° 272° (W) 06:18:48
CUBESAT XI-V 28 May 06:17:03 06:21:35 63° 75° (ENE) 06:26:10 437.345
CUTE-I 28 May 06:23:12 06:27:19 23° 92° (E) 06:31:35 437.470
ISS 28 May 06:23:26 06:26:33 42° 222° (SW) 06:29:39 145.825
STRAND 1 28 May 06:26:49 06:31:23 36° 69° (ENE) 06:36:03 437.568
YUBILEINY 28 May 06:34:26 06:41:22 28° 84° (E) 06:48:33 435.215
Cubesat XI-IV 28 May 06:43:39 06:48:32 35° 96° (E) 06:53:28 437.490
PHONESAT 2.4 28 May 06:50:45 06:54:10 56° 196° (SSW) 06:57:34 2401.200-2431.200
AO-7 28 May 07:00:20 07:07:06 27° 303° (WNW) 07:13:37 29.400- 29.500
PRISM 28 May 07:08:59 07:13:04 74° 259° (W) 07:17:09 437.425
M-CUBED/EXP-1 PRIME 28 May 07:23:56 07:28:10 75° 254° (WSW) 07:32:03 437.505
AUBIESAT-1 28 May 07:30:56 07:35:06 72° 253° (WSW) 07:38:57 437.475
AIST 1 28 May 07:35:00 07:39:13 44° 78° (ENE) 07:43:27
Cosmos 2491 28 May 07:39:14 07:47:48 56° 269° (W) 07:56:14 435.465 / 435.565
CUBESAT XI-V 28 May 07:57:29 07:59:33 12° 272° (W) 08:01:21 437.345
RS-15 28 May 07:58:30 08:07:40 35° 107° (ESE) 08:17:17 29.354- 29.394
CUTE-I 28 May 08:02:32 08:07:39 45° 289° (WNW) 08:12:43 437.470
GOMX 1 28 May 08:03:37 08:05:54 13° 85° (E) 08:08:26 467.674
BRITE-PL 28 May 08:06:04 08:10:29 24° 90° (E) 08:14:51 437.365/2234.400
STRAND 1 28 May 08:06:23 08:10:41 26° 266° (W) 08:14:56 437.568
HO-68 28 May 08:13:01 08:16:39 15° 87° (E) 08:20:43 435.675
Cubesat XI-IV 28 May 08:23:55 08:28:33 30° 293° (WNW) 08:33:07 437.490
YUBILEINY 28 May 08:29:00 08:37:41 61° 283° (WNW) 08:46:19 435.215
PHONESAT 2.4 28 May 08:29:37 08:31:53 16° 211° (SSW) 08:34:05 2401.200-2431.200
PCSat 28 May 08:34:24 08:37:47 17° 42° (NE) 08:41:18 145.827
Cosmos 2504 28 May 08:54:35 09:00:11 22° 84° (E) 09:05:55 435.465 / 435.565
DOVE 4 28 May 08:56:30 09:00:46 28° 92° (E) 09:04:55 437.250
CANX-2 28 May 08:56:47 09:00:17 25° 94° (E) 09:03:49 2200.000
CUTE 1.7 + AOD 2 28 May 09:00:08 09:03:37 25° 94° (E) 09:07:08 437.475
AIST 1 28 May 09:13:58 09:16:32 15° 273° (W) 09:18:55
SEEDS 28 May 09:20:22 09:24:11 34° 97° (E) 09:28:02 437.485
COMPASS 1 28 May 09:31:23 09:35:15 36° 97° (E) 09:39:06 437.405
GOMX 1 28 May 09:39:24 09:44:46 74° 285° (WNW) 09:49:49 467.674
AAUSAT CUBESAT 2 28 May 09:42:18 09:46:14 42° 98° (E) 09:50:10 437.432
TIGRISAT 28 May 09:42:22 09:45:38 20° 67° (ENE) 09:49:01 435.000
BRITE-PL 28 May 09:43:50 09:49:15 46° 289° (WNW) 09:54:21 437.365/2234.400
UWE-3 28 May 09:52:40 09:55:38 18° 91° (E) 09:58:38 435.000/436.395/437.385
POLYITAN 1 28 May 09:53:29 09:54:34 11° 63° (ENE) 09:55:52 437.675
HO-68 28 May 09:58:16 10:05:28 90° 104° (ESE) 10:12:38 435.675
FUNcube-1 28 May 09:59:15 10:01:50 16° 90° (E) 10:04:34 145.935
DELFI C3 28 May 10:00:56 10:04:00 21° 93° (E) 10:07:09 145.870
CINEMA 3 28 May 10:01:26 10:06:06 60° 100° (E) 10:10:32 145.822/145.860
UNISAT 6 28 May 10:02:29 10:06:36 32° 70° (ENE) 10:10:43 437.425
RS-15 28 May 10:08:33 10:19:23 66° 308° (NW) 10:30:33 29.354- 29.394
PCSat 28 May 10:16:32 10:22:00 87° 238° (WSW) 10:27:25 145.827
SO-50 28 May 10:17:38 10:20:09 14° 36° (NE) 10:22:48 436.795
NANOSAT C BR1 28 May 10:19:18 10:22:24 20° 68° (ENE) 10:25:37 145.865
HUMSAT D 28 May 10:23:33 10:25:27 13° 89° (E) 10:27:33 437.325/437.525
QB50P2 28 May 10:27:55 10:31:26 26° 69° (ENE) 10:35:02 145.880/145.840
CANX-2 28 May 10:32:38 10:36:10 26° 290° (WNW) 10:39:37 2200.000
DOVE 4 28 May 10:34:00 10:38:34 33° 291° (WNW) 10:42:51 437.250
YUBILEINY 28 May 10:34:06 10:36:54 11° 307° (NW) 10:39:00 435.215
CUTE 1.7 + AOD 2 28 May 10:35:57 10:39:30 26° 290° (WNW) 10:42:58 437.475
UKube-1 28 May 10:38:50 10:41:56 19° 93° (E) 10:45:10 .
ZACube-1 28 May 10:39:14 10:43:25 46° 99° (E) 10:47:29 437.345
POPSAT HIP 1 28 May 10:39:27 10:43:17 33° 71° (ENE) 10:47:11 437.405
DUCHIFAT 1 28 May 10:40:15 10:44:02 33° 71° (ENE) 10:47:55 145.980
CUBEBUG 2 28 May 10:43:40 10:48:08 86° 98° (E) 10:52:26 437.445
Cosmos 2504 28 May 10:44:39 10:53:00 73° 280° (W) 11:00:46 435.465 / 435.565
ANTELSAT 28 May 10:45:11 10:49:54 88° 69° (ENE) 10:54:34 437.575/2403.000
Oscar 11 28 May 10:48:22 10:52:40 75° 285° (WNW) 10:56:57 145.826/435.025
DX 1 28 May 10:49:14 10:52:58 27° 95° (E) 10:56:45 434.975-435.025
SEEDS 28 May 10:56:45 10:59:47 19° 292° (WNW) 11:02:43 437.485
BUGSAT 1 28 May 10:56:54 11:00:39 34° 71° (ENE) 11:04:30 437.445
50 SAT 28 May 10:59:29 11:02:07 18° 92° (E) 11:04:50 437.505
CUBEBUG 1 28 May 11:05:51 11:06:09 10° 87° (E) 11:06:46 437.445
COMPASS 1 28 May 11:07:48 11:10:41 18° 293° (WNW) 11:13:28 437.405
VELOX 1 28 May 11:09:02 11:12:34 23° 94° (E) 11:16:10 145.980
TIGRISAT 28 May 11:17:37 11:22:07 44° 262° (W) 11:26:33 435.000
ESTCUBE 1 28 May 11:17:54 11:20:51 17° 91° (E) 11:23:58 437.505/2401.250
AAUSAT CUBESAT 2 28 May 11:18:56 11:21:33 16° 293° (WNW) 11:24:01 437.432
QB50P1 28 May 11:22:50 11:27:07 79° 258° (WSW) 11:31:26 145.935-145.965
POLYITAN 1 28 May 11:25:38 11:29:56 72° 258° (WSW) 11:34:17 437.675
UWE-3 28 May 11:28:18 11:32:22 38° 289° (WNW) 11:36:18 435.000/436.395/437.385
FUNcube-1 28 May 11:34:22 11:38:27 41° 288° (WNW) 11:42:24 145.935
DELFI C3 28 May 11:35:40 11:39:08 28° 289° (WNW) 11:42:33 145.870
UNISAT 6 28 May 11:39:26 11:43:23 26° 266° (W) 11:47:14 437.425
CINEMA 3 28 May 11:40:10 11:42:47 15° 297° (WNW) 11:45:09 145.822/145.860
AISAT 28 May 11:40:36 11:45:00 52° 100° (E) 11:49:23 437.250
DANDE 28 May 11:42:37 11:46:23 15° 78° (ENE) 11:50:55 436.750
HO-68 28 May 11:47:40 11:52:22 18° 304° (WNW) 11:56:46 435.675
NANOSAT C BR1 28 May 11:54:06 11:58:02 35° 263° (W) 12:01:58 145.865
SO-50 28 May 11:56:37 12:01:37 75° 56° (NE) 12:06:30 436.795
HUMSAT D 28 May 11:57:33 12:01:34 48° 287° (WNW) 12:05:31 437.325/437.525
CUSAT 1 28 May 12:01:15 12:07:19 29° 85° (E) 12:14:09 437.405
PCSat 28 May 12:03:25 12:04:42 11° 257° (WSW) 12:05:37 145.827
QB50P2 28 May 12:03:34 12:07:16 27° 265° (W) 12:10:55 145.880/145.840
UKube-1 28 May 12:14:13 12:18:13 36° 289° (WNW) 12:22:12 .
POPSAT HIP 1 28 May 12:15:57 12:19:15 21° 267° (W) 12:22:29 437.405
DUCHIFAT 1 28 May 12:16:39 12:19:57 21° 267° (W) 12:23:09 145.980
ZACube-1 28 May 12:16:46 12:19:24 16° 295° (WNW) 12:21:52 437.345
DX 1 28 May 12:25:26 12:29:09 27° 291° (WNW) 12:32:48 434.975-435.025
RS-15 28 May 12:25:48 12:34:35 25° 338° (NNW) 12:43:27 29.354- 29.394
BUGSAT 1 28 May 12:33:10 12:36:15 19° 268° (W) 12:39:15 437.445
50 SAT 28 May 12:33:29 12:36:56 30° 289° (WNW) 12:40:19 437.505
CUBEBUG 1 28 May 12:38:38 12:43:06 72° 286° (WNW) 12:47:31 437.445
Cosmos 2504 28 May 12:44:10 12:47:57 13° 301° (WNW) 12:51:06 435.465 / 435.565
VELOX 1 28 May 12:45:09 12:49:11 33° 290° (WNW) 12:53:09 145.980
ESTCUBE 1 28 May 12:53:40 12:57:59 44° 288° (WNW) 13:02:17 437.505/2401.250
GONETS M04 28 May 12:57:52 13:06:17 53° 90° (E) 13:14:49
SPROUT 28 May 13:11:39 13:16:00 74° 102° (ESE) 13:20:18 437.525
AISAT 28 May 13:18:26 13:21:12 16° 295° (WNW) 13:23:47 437.250
DANDE 28 May 13:21:01 13:28:13 78° 97° (E) 13:36:46 436.750
Oscar 19 28 May 13:22:13 13:27:21 65° 74° (ENE) 13:32:32 437.125/150
Cosmos 2499 28 May 13:24:35 13:25:17 10° 79° (E) 13:26:39 435.465 / 435.565
TISAT 1 28 May 13:28:59 13:33:18 83° 105° (ESE) 13:37:32 437.305
ITUPSAT 1 28 May 13:29:44 13:31:42 13° 89° (E) 13:33:56 437.325
BEESAT 28 May 13:35:50 13:38:31 15° 90° (E) 13:41:24 436.000
SO-50 28 May 13:39:09 13:41:37 13° 251° (WSW) 13:43:48 436.795
ITAMSAT 1 28 May 13:40:35 13:44:56 29° 67° (ENE) 13:49:24 435.822/435.867
CUSAT 1 28 May 13:42:00 13:49:26 64° 284° (WNW) 13:57:44 437.405
SWISSCUBE 28 May 13:43:58 13:47:27 20° 92° (E) 13:51:03 437.505
AO-7 28 May 14:15:39 14:21:19 22° 53° (NE) 14:27:19 29.400- 29.500
Gurwin Techsat 1B 28 May 14:26:30 14:31:46 72° 75° (ENE) 14:37:06 435.225
JAS-2 28 May 14:32:11 14:36:25 20° 65° (ENE) 14:40:34 435.910
HORYU 2 28 May 14:42:22 14:45:05 16° 65° (ENE) 14:47:57 437.375
RS-15 28 May 14:44:13 14:52:22 22° 13° (NNE) 15:00:56 29.354- 29.394
SPROUT 28 May 14:50:21 14:51:33 11° 297° (WNW) 14:52:30 437.525
KKS-1 28 May 14:51:00 14:53:37 16° 91° (E) 14:56:25 437.445
O/OREOS (USA 219) 28 May 14:53:18 14:56:54 25° 104° (ESE) 15:00:37 437.305
GONETS M04 28 May 14:55:37 15:03:32 34° 291° (WNW) 15:11:19
Oscar 19 28 May 15:04:11 15:07:15 15° 271° (W) 15:10:03 437.125/150
ITUPSAT 1 28 May 15:05:22 15:10:09 66° 285° (WNW) 15:14:53 437.325
DANDE 28 May 15:06:30 15:12:37 24° 299° (WNW) 15:19:02 436.750
Cosmos 2499 28 May 15:09:21 15:17:23 69° 94° (E) 15:24:52 435.465 / 435.565
BEESAT 28 May 15:12:05 15:16:46 55° 287° (WNW) 15:21:25 436.000
ITAMSAT 1 28 May 15:19:40 15:24:22 34° 264° (W) 15:29:03 435.822/435.867
SWISSCUBE 28 May 15:21:00 15:25:31 41° 289° (WNW) 15:29:58 437.505
CUSAT 1 28 May 15:30:00 15:34:07 14° 306° (NW) 15:37:50 437.405
STARS 28 May 15:49:59 15:54:12 42° 98° (E) 15:58:23 437.465
AO-7 28 May 16:04:53 16:13:12 89° 260° (W) 16:21:35 29.400- 29.500
Gurwin Techsat 1B 28 May 16:09:37 16:12:24 14° 272° (W) 16:14:53 435.225
JAS-2 28 May 16:14:32 16:21:12 68° 258° (WSW) 16:27:05 435.910
HORYU 2 28 May 16:17:02 16:21:23 49° 260° (W) 16:25:44 437.375
KKS-1 28 May 16:26:15 16:30:34 47° 288° (WNW) 16:34:51 437.445
MOZHAYETS 4 28 May 16:31:45 16:34:28 16° 90° (E) 16:37:22
O/OREOS (USA 219) 28 May 16:32:10 16:36:13 31° 300° (WNW) 16:40:13 437.305
YUBILEINY 28 May 16:45:48 16:49:05 13° 55° (NE) 16:53:00 435.215
RS-15 28 May 16:57:38 17:08:40 48° 44° (NE) 17:20:15 29.354- 29.394
BEESAT 2 28 May 17:03:25 17:06:06 17° 112° (ESE) 17:08:56 435.950
Cosmos 2499 28 May 17:05:03 17:11:13 23° 293° (WNW) 17:16:49 435.465 / 435.565
STARS 28 May 17:27:16 17:30:21 18° 294° (WNW) 17:33:19 437.465
CUTE-I 28 May 17:44:37 17:49:25 36° 69° (ENE) 17:54:17 437.470
BEESAT 3 28 May 17:48:33 17:52:35 68° 120° (ESE) 17:56:41 437.485
AO-7 28 May 18:01:52 18:07:14 17° 272° (W) 18:12:08 29.400- 29.500
Cubesat XI-IV 28 May 18:05:19 18:10:29 57° 72° (ENE) 18:15:44 437.490
MOZHAYETS 4 28 May 18:07:36 18:12:02 48° 287° (WNW) 18:16:25
CUBESAT XI-V 28 May 18:15:12 18:18:05 17° 90° (E) 18:21:10 437.345
YUBILEINY 28 May 18:39:24 18:48:04 68° 79° (E) 18:56:44 435.215
STRAND 1 28 May 18:39:36 18:41:20 12° 87° (E) 18:43:24 437.568
BEESAT 2 28 May 18:39:58 18:43:54 43° 307° (NW) 18:47:53 435.950
AIST 2 28 May 18:40:58 18:45:07 55° 118° (ESE) 18:49:20 435.215
HO-68 28 May 18:43:42 18:46:26 13° 52° (NE) 18:49:35 435.675
Cosmos 2491 28 May 18:43:44 18:51:28 37° 87° (E) 18:59:24 435.465 / 435.565
PRISM 28 May 18:52:47 18:55:12 15° 91° (E) 18:57:47 437.425
RS-15 28 May 19:10:12 19:21:31 57° 247° (WSW) 19:33:09 29.354- 29.394
GOMX 1 28 May 19:11:02 19:13:57 16° 62° (ENE) 19:17:09 467.674
BRITE-PL 28 May 19:16:14 19:20:25 26° 66° (ENE) 19:24:57 437.365/2234.400
CUTE-I 28 May 19:25:02 19:29:35 28° 266° (W) 19:34:04 437.470
BEESAT 3 28 May 19:28:38 19:31:03 15° 319° (NW) 19:33:22 437.485
Cubesat XI-IV 28 May 19:47:25 19:51:02 18° 270° (W) 19:54:28 437.490
CANX-2 28 May 19:50:02 19:53:00 19° 68° (ENE) 19:56:04 2200.000
CUBESAT XI-V 28 May 19:51:18 19:55:51 49° 287° (WNW) 20:00:23 437.345
CUTE 1.7 + AOD 2 28 May 19:53:20 19:56:15 19° 68° (ENE) 19:59:17 437.475
DOVE 4 28 May 20:01:08 20:05:31 29° 68° (ENE) 20:10:05 437.250
AIST 1 28 May 20:04:38 20:08:09 26° 90° (E) 20:11:47
SEEDS 28 May 20:12:29 20:15:52 24° 70° (ENE) 20:19:19 437.485
STRAND 1 28 May 20:16:05 20:21:15 78° 284° (WNW) 20:26:23 437.568
AIST 2 28 May 20:21:02 20:24:04 18° 317° (NW) 20:27:01 435.215
COMPASS 1 28 May 20:22:39 20:26:03 25° 70° (ENE) 20:29:31 437.405
HO-68 28 May 20:25:55 20:32:59 66° 70° (ENE) 20:40:07 435.675
PRISM 28 May 20:26:57 20:30:54 42° 288° (WNW) 20:34:50 437.425
AAUSAT CUBESAT 2 28 May 20:33:01 20:36:33 28° 71° (ENE) 20:40:08 437.432
YUBILEINY 28 May 20:37:28 20:44:14 25° 277° (W) 20:50:41 435.215
Cosmos 2504 28 May 20:37:54 20:44:26 37° 73° (ENE) 20:51:05 435.465 / 435.565
Cosmos 2491 28 May 20:39:44 20:48:10 48° 286° (WNW) 20:56:37 435.465 / 435.565
M-CUBED/EXP-1 PRIME 28 May 20:40:10 20:43:28 89° 106° (ESE) 20:46:49 437.505
GOMX 1 28 May 20:46:15 20:51:24 74° 258° (WSW) 20:56:53 467.674
AUBIESAT-1 28 May 20:46:29 20:49:48 89° 304° (NW) 20:53:09 437.475
DELFI C3 28 May 20:49:15 20:51:14 14° 66° (ENE) 20:53:23 145.870
UWE-3 28 May 20:49:43 20:52:40 17° 66° (ENE) 20:55:46 435.000/436.395/437.385
BRITE-PL 28 May 20:53:49 20:58:41 42° 264° (W) 21:03:52 437.365/2234.400
FUNcube-1 28 May 20:55:10 20:57:37 15° 65° (ENE) 21:00:15 145.935
CINEMA 3 28 May 21:01:58 21:06:50 55° 73° (ENE) 21:11:46 145.822/145.860
HUMSAT D 28 May 21:16:37 21:17:28 11° 64° (ENE) 21:18:32 437.325/437.525
CANX-2 28 May 21:24:44 21:28:42 37° 263° (W) 21:32:39 2200.000
CUTE 1.7 + AOD 2 28 May 21:27:57 21:31:57 37° 263° (W) 21:35:54 437.475
UKube-1 28 May 21:33:59 21:36:44 17° 66° (ENE) 21:39:38 .
ZACube-1 28 May 21:34:32 21:38:46 37° 71° (ENE) 21:43:00 437.345
DOVE 4 28 May 21:38:24 21:43:08 35° 265° (W) 21:47:58 437.250
CUBEBUG 2 28 May 21:40:48 21:45:33 70° 75° (ENE) 21:50:18 437.445
AIST 1 28 May 21:42:18 21:45:48 24° 287° (WNW) 21:49:15
Oscar 11 28 May 21:42:29 21:46:49 80° 78° (ENE) 21:51:10 145.826/435.025
DX 1 28 May 21:44:49 21:48:16 24° 68° (ENE) 21:51:49 434.975-435.025
50 SAT 28 May 21:45:32 21:46:44 11° 65° (ENE) 21:48:09 437.505
SEEDS 28 May 21:47:56 21:51:35 27° 265° (W) 21:55:11 437.485
COMPASS 1 28 May 21:58:07 22:01:40 26° 265° (W) 22:05:11 437.405
STRAND 1 28 May 21:59:08 21:59:41 10° 301° (WNW) 21:59:54 437.568
VELOX 1 28 May 22:06:46 22:10:00 21° 67° (ENE) 22:13:23 145.980
AAUSAT CUBESAT 2 28 May 22:08:47 22:12:10 23° 266° (W) 22:15:28 437.432
HO-68 28 May 22:15:44 22:21:20 23° 269° (W) 22:26:42 435.675
ESTCUBE 1 28 May 22:17:55 22:20:37 16° 66° (ENE) 22:23:30 437.505/2401.250
DELFI C3 28 May 22:22:06 22:25:59 47° 261° (W) 22:29:54 145.870
UWE-3 28 May 22:24:15 22:28:50 51° 261° (W) 22:33:23 435.000/436.395/437.385
DANDE 28 May 22:24:36 22:27:18 12° 51° (NE) 22:30:15 436.750
FUNcube-1 28 May 22:28:59 22:33:32 58° 261° (W) 22:38:02 145.935
Cosmos 2504 28 May 22:31:20 22:37:50 37° 271° (W) 22:44:15 435.465 / 435.565
AISAT 28 May 22:37:59 22:42:13 45° 72° (ENE) 22:46:31 437.250
ANTELSAT 28 May 22:38:50 22:41:43 18° 91° (E) 22:44:44 437.575/2403.000
CINEMA 3 28 May 22:41:03 22:44:24 17° 271° (W) 22:47:35 145.822/145.860
CUSAT 1 28 May 22:41:33 22:46:09 19° 58° (ENE) 22:50:21 437.405
HUMSAT D 28 May 22:48:21 22:52:41 74° 258° (WSW) 22:57:00 437.325/437.525
ISS 28 May 23:01:58 23:05:11 66° 140° (SE) 23:08:25 145.825
UKube-1 28 May 23:08:25 23:12:34 43° 261° (W) 23:16:43 .
GONETS M04 28 May 23:09:04 23:15:54 26° 65° (ENE) 23:22:59
QB50P1 28 May 23:09:25 23:12:12 17° 91° (E) 23:15:05 145.935-145.965
TIGRISAT 28 May 23:09:52 23:13:55 37° 97° (E) 23:17:55 435.000
ZACube-1 28 May 23:11:42 23:15:14 21° 268° (W) 23:18:39 437.345
POLYITAN 1 28 May 23:12:23 23:15:23 19° 92° (E) 23:18:28 437.675
50 SAT 28 May 23:17:04 23:21:01 58° 260° (W) 23:24:58 437.505
PCSat 28 May 23:18:28 23:20:14 12° 104° (ESE) 23:22:20 145.827
DX 1 28 May 23:20:32 23:24:24 30° 264° (W) 23:28:16 434.975-435.025
CUBEBUG 2 28 May 23:20:46 23:22:47 12° 273° (W) 23:24:31 437.445
UNISAT 6 28 May 23:31:00 23:35:22 69° 101° (ESE) 23:39:38 437.425
CUBEBUG 1 28 May 23:34:11 23:38:33 90° 309° (NW) 23:42:59 437.445
NANOSAT C BR1 28 May 23:39:07 23:43:04 36° 97° (E) 23:47:00 145.865
VELOX 1 28 May 23:42:14 23:46:21 37° 263° (W) 23:50:29 145.980
QB50P2 28 May 23:48:32 23:52:41 48° 99° (E) 23:56:49 145.880/145.840
ESTCUBE 1 28 May 23:52:48 23:57:09 49° 261° (W) 00:01:31 437.505/2401.250
POPSAT HIP 1 29 May 00:00:13 00:04:29 65° 101° (E) 00:08:42 437.405
DUCHIFAT 1 29 May 00:00:27 00:04:42 63° 101° (E) 00:08:54 145.980
DANDE 29 May 00:05:01 00:12:43 65° 76° (ENE) 00:18:40 436.750
SPROUT 29 May 00:05:18 00:09:30 53° 74° (ENE) 00:13:45 437.525
BUGSAT 1 29 May 00:14:18 00:18:33 62° 101° (E) 00:22:44 437.445
ANTELSAT 29 May 00:14:39 00:18:45 38° 288° (WNW) 00:22:42 437.575/2403.000
AISAT 29 May 00:16:10 00:19:05 16° 269° (W) 00:21:51 437.250
TISAT 1 29 May 00:20:34 00:24:44 58° 74° (ENE) 00:28:57 437.305
VERMONT LUNAR 29 May 00:22:27 00:24:18 15° 149° (SSE) 00:26:13 437.305
CUSAT 1 29 May 00:23:00 00:30:03 73° 264° (W) 00:35:21 437.405
ITUPSAT 1 29 May 00:36:22 00:39:04 16° 64° (ENE) 00:41:57 437.325
ISS 29 May 00:39:15 00:41:51 21° 339° (NNW) 00:44:26 145.825
BEESAT 29 May 00:42:14 00:45:21 18° 65° (ENE) 00:48:37 436.000
QB50P1 29 May 00:44:15 00:48:17 39° 288° (WNW) 00:52:14 145.935-145.965
TIGRISAT 29 May 00:47:17 00:50:26 19° 293° (WNW) 00:53:25 435.000
POLYITAN 1 29 May 00:47:29 00:51:26 36° 289° (WNW) 00:55:19 437.675
SWISSCUBE 29 May 00:50:26 00:54:06 23° 67° (ENE) 00:57:54 437.505
PCSat 29 May 00:57:34 01:02:59 87° 299° (WNW) 01:08:28 145.827
Cosmos 2499 29 May 01:01:49 01:06:43 20° 65° (ENE) 01:11:57 435.465 / 435.565
O/OREOS (USA 219) 29 May 01:02:40 01:06:59 45° 64° (ENE) 01:11:16 437.305
GONETS M04 29 May 01:04:56 01:13:40 70° 267° (W) 01:22:17
UNISAT 6 29 May 01:10:07 01:11:37 11° 297° (WNW) 01:12:54 437.425
NANOSAT C BR1 29 May 01:15:33 01:18:41 19° 293° (WNW) 01:21:41 145.865
PHONESAT 2.4 29 May 01:16:54 01:18:03 11° 146° (SSE) 01:19:18 2401.200-2431.200
BEESAT 2 29 May 01:22:43 01:24:42 13° 40° (NE) 01:26:47 435.950
